World > North America > United States > Oregon

Hourly Granite, OR Regional Weather

Feedback E-mail the Weather

Quick WX

Granite, OR Weather Maps

°F °C°F °C
Granite Weather Map
UTC Time: 6/27/2022, 20:51
Your Time:

Granite, OR Regional Weather

Expires:202206272100;;292105
ASUS46 KPQR 272010
RWROR 

OREGON REGIONAL WEATHER ROUNDUP
NATIONAL WEATHER SERVICE PORTLAND OR
100 PM PDT MON JUN 27 2022

NOTE: "FAIR" INDICATES FEW OR NO CLOUDS BELOW 12,000 FEET WITH
NO SIGNIFICANT WEATHER AND/OR OBSTRUCTIONS TO VISIBILITY.


ORZ029>031-041-044-049-050-061>064-502-503-505>511-272100-
EASTERN OREGON

  
CITY           SKY/WX    TMP DP  RH WIND       PRES   REMARKS
MADRAS         SUNNY     90  48  24 W3        30.04F                  
REDMOND        SUNNY     93  47  20 SE6       30.04F                  
BEND           SUNNY     91  36  14 W14G21    30.08F                  
PRINEVILLE     SUNNY     90  46  22 VRB6G14   30.07F                  
KLAMATH FALLS  SUNNY     93  25   8 S16G29    30.13F                  
LAKEVIEW       SUNNY     89  31  12 S14       30.22F                  
HERMISTON      SUNNY     92  50  23 VRB3      29.93F                  
PENDLETON      SUNNY     93  54  26 NE6       29.96F HX  91           
JOHN DAY       SUNNY     93  40  15 SE8G23    30.09F                  
MEACHAM        SUNNY     90  51  26 CALM      30.09F                  
LA GRANDE      SUNNY     87  61  41 NE8       30.04F                  
BAKER CITY     SUNNY     91  45  20 VRB5      30.09F                  
BURNS          SUNNY     93  37  14 SW8G18    30.15F                  
ROME             N/A     97  36  12 CALM      30.11F HX  92           
ONTARIO        SUNNY     94  48  20 VRB3      30.05F HX  90           
$$


OTHER REGIONAL REPORTS
  
CITY           SKY/WX    TMP DP  RH WIND       PRES   REMARKS
SEATTLE        MOSUNNY   85  58  39 NW3       29.93F                  
SPOKANE        MOSUNNY   84  46  26 CALM      30.07F                  
VANCOUVER BC   MOSUNNY   77  61  57 W12       29.92F                  
PRINCE GEORGE  SUNNY     77  52  41 N8        30.06F                  
DAWSON CREEK   CLOUDY    64  54  68 N12       30.24S                  
WHITEHORSE     PTSUNNY   73  46  38 N6        30.11F                  
BOISE          SUNNY     98  27   8 SE6G21    30.06F HX  92           
REDDING        SUNNY     98  37  12 S12       29.98F HX  93           
SAN FRANCISCO  MOSUNNY   66  53  63 NW18      30.07F                  

$$

  

SKY/WX - Weather  TMP - Temperature  DP - Dew Point  RH - Humidity
WIND - Wind Direction/Speed PRES - Barometric Pressure VSB - Visibility
WCI - Wind Chill Index E13G22 Wind - East Wind 13 mph/Gusts of 22 mph

Trending Headlines

Granite Radar Loop



Granite Quick Facts


National Two Day Weather Forecast


E-mail the Granite Weather Forecast

Voice your opinion or tell us about page issues...